Location: Unspecified
(50.2975°N, 0.0000°E)
Time: 04:49:55
(UTC+00:00)

ISS - Visible Passes

Search period start: 27 May 2019 00:00
Search period end: 06 June 2019 00:00
Orbit: 408 x 418 km, 51.6° (Epoch: 27 May)

Date Brightness Start Highest point End Pass type
(mag) Time Alt. Az. Time Alt. Az. Time Alt. Az.
27 May -3.7 21:22:37 10° WNW 21:25:58 81° NNE 21:29:19 10° E visible
27 May -2.8 22:59:24 10° W 23:02:08 33° SW 23:02:08 33° SW visible
28 May -3.5 20:33:07 10° WNW 20:36:28 71° N 20:39:49 10° E visible
28 May -3.5 22:09:51 10° WNW 22:13:07 49° SSW 22:14:15 32° SSE visible
29 May -3.8 21:20:21 10° WNW 21:23:40 68° SSW 21:26:24 14° ESE visible
29 May -1.7 22:57:35 10° W 22:59:13 17° SW 22:59:13 17° SW visible
30 May -2.5 22:07:45 10° W 22:10:37 26° SW 22:11:23 24° S visible
31 May -3.0 21:18:06 10° W 21:21:14 38° SSW 21:23:35 16° SSE visible
01 Jun -1.5 22:06:16 10° WSW 22:07:55 13° SW 22:08:37 12° SSW visible
02 Jun -1.9 21:16:06 10° W 21:18:37 20° SW 21:20:53 11° S visible
